Sigfox identifier Datetime Temperature Humidity SNR
002EEBC9 2019-04-23 14:52:06 21.6 29 15.9
002EEBC9 2019-04-23 14:20:10 21.6 29 16.2
002EEBC9 2019-04-23 13:48:15 21.6 29 16.2
002EEBC9 2019-04-23 13:16:20 21.6 29 15.7
002EEBC9 2019-04-23 12:44:26 21.6 29 16
002EEBC9 2019-04-23 12:12:30 21.6 29 16
002EEBC9 2019-04-23 11:40:36 21.5 29 15.9
002EEBC9 2019-04-23 11:08:44 21.5 28 16
002EEBC9 2019-04-23 10:36:45 21.4 28 16
002EEBC9 2019-04-23 10:04:50 21.4 28 16
002EEBC9 2019-04-23 09:32:56 21.3 28 15.9
002EEBC9 2019-04-23 09:01:01 21.2 28 16.1
002EEBC9 2019-04-23 08:29:09 21.2 28 15.9
002EEBC9 2019-04-23 07:57:12 21.1 28 15.9
002EEBC9 2019-04-23 07:25:17 21 28 15.9
002EEBC9 2019-04-23 06:53:21 21.1 28 16.2
002EEBC9 2019-04-23 06:21:26 21.1 28 15.7
002EEBC9 2019-04-23 05:49:30 21.1 28 16.2
002EEBC9 2019-04-23 05:17:35 21.1 28 16.8
002EEBC9 2019-04-23 04:45:40 21.1 28 19.4
002EEBC9 2019-04-23 04:13:44 21.1 28 19.5
002EEBC9 2019-04-23 03:41:49 21 28 19.5
002EEBC9 2019-04-23 03:09:54 21.1 28 19.6
002EEBC9 2019-04-23 02:37:58 21.1 28 19.6
002EEBC9 2019-04-23 02:06:02 21.1 28 19.6
002EEBC9 2019-04-23 01:34:05 21.1 28 19.7
002EEBC9 2019-04-23 01:02:10 21.2 28 19.8
002EEBC9 2019-04-23 00:30:13 21.1 28 19.8
002EEBC9 2019-04-22 23:58:17 21.2 28 20.3
002EEBC9 2019-04-22 23:26:22 21.1 28 20.3
002EEBC9 2019-04-22 22:54:27 21.1 28 20.3
002EEBC9 2019-04-22 22:22:33 21.1 28 20.4
002EEBC9 2019-04-22 21:50:38 21 28 20.6
002EEBC9 2019-04-22 21:18:42 21.1 28 20.6
002EEBC9 2019-04-22 20:46:49 21 28 20.5
002EEBC9 2019-04-22 20:14:50 21 28 20.4
002EEBC9 2019-04-22 19:42:55 21 28 20.4
002EEBC9 2019-04-22 19:10:59 21 28 20.3
002EEBC9 2019-04-22 18:39:06 21 28 20.3
002EEBC9 2019-04-22 18:07:08 21 28 20.2
002EEBC9 2019-04-22 17:35:14 21 28 20.2
002EEBC9 2019-04-22 17:03:19 21 28 20
002EEBC9 2019-04-22 16:31:25 21.1 28 19.8
002EEBC9 2019-04-22 15:59:31 21.1 28 19.8
002EEBC9 2019-04-22 15:27:34 21 28 17.5
002EEBC9 2019-04-22 14:55:38 21 28 17.2
002EEBC9 2019-04-22 14:23:42 21 28 19.6
002EEBC9 2019-04-22 13:51:50 21 27 19.5
002EEBC9 2019-04-22 13:19:52 21.1 27 19.5
002EEBC9 2019-04-22 12:47:56 21.1 27 19.5
002EEBC9 2019-04-22 12:16:01 21.1 27 19.4
002EEBC9 2019-04-22 11:44:06 21.2 27 19.2
002EEBC9 2019-04-22 11:12:11 21.2 27 19
002EEBC9 2019-04-22 10:40:15 21.2 27 18.5
002EEBC9 2019-04-22 10:08:20 21.2 27 18.5
002EEBC9 2019-04-22 09:36:26 21.2 27 18.4
002EEBC9 2019-04-22 09:04:31 21.2 27 18.1
002EEBC9 2019-04-22 08:32:36 21.2 27 17.9
002EEBC9 2019-04-22 08:00:42 21.2 27 17.8
002EEBC9 2019-04-22 07:28:47 21.2 27 18.2
002EEBC9 2019-04-22 06:56:53 21.2 27 18.1
002EEBC9 2019-04-22 06:24:58 21.2 27 18.5
002EEBC9 2019-04-22 05:53:03 21.2 27 18.6
002EEBC9 2019-04-22 05:21:10 21.2 27 18.6
002EEBC9 2019-04-22 04:49:15 21.2 27 18.5
002EEBC9 2019-04-22 04:17:21 21.2 27 18.5
002EEBC9 2019-04-22 03:45:28 21.2 27 20.5
002EEBC9 2019-04-22 03:13:28 21.2 27 20.4
002EEBC9 2019-04-22 02:41:32 21.2 27 20.5
002EEBC9 2019-04-22 02:09:35 21.2 27 20.5
002EEBC9 2019-04-22 01:37:39 21.2 27 18.7
002EEBC9 2019-04-22 01:05:43 21.3 27 18.8
002EEBC9 2019-04-22 00:33:47 21.3 27 18.7
002EEBC9 2019-04-22 00:01:52 21.4 27 18.8
002EEBC9 2019-04-21 23:29:58 21.4 27 18.8
002EEBC9 2019-04-21 22:58:03 21.4 27 19.2
002EEBC9 2019-04-21 22:26:11 21.4 27 19.3
002EEBC9 2019-04-21 21:54:14 21.4 27 19.5
002EEBC9 2019-04-21 21:22:19 21.4 27 19.6
002EEBC9 2019-04-21 20:50:25 21.4 27 19.7
002EEBC9 2019-04-21 20:18:30 21.4 27 19.7
002EEBC9 2019-04-21 19:46:36 21.4 27 19.7
002EEBC9 2019-04-21 19:14:42 21.4 27 19.7
002EEBC9 2019-04-21 18:42:47 21.4 27 19.7
002EEBC9 2019-04-21 18:10:53 21.3 27 19.5
002EEBC9 2019-04-21 17:38:58 21.2 27 19.6
002EEBC9 2019-04-21 17:07:02 21.2 27 19.3
002EEBC9 2019-04-21 16:35:08 21.2 27 19.3
002EEBC9 2019-04-21 16:03:12 21.2 27 19.3
002EEBC9 2019-04-21 15:31:17 21.2 27 19.5
002EEBC9 2019-04-21 14:59:23 21.2 27 19.5
002EEBC9 2019-04-21 14:27:27 21.2 27 19.5
002EEBC9 2019-04-21 13:55:33 21.1 27 19.4
002EEBC9 2019-04-21 13:23:37 21.2 27 19.3
002EEBC9 2019-04-21 12:51:41 21 27 19.3
002EEBC9 2019-04-21 12:19:45 21 27 19.4
002EEBC9 2019-04-21 11:47:48 21 26 19.2
002EEBC9 2019-04-21 11:15:52 21 26 19.3
002EEBC9 2019-04-21 10:43:58 21 26 19.3
002EEBC9 2019-04-21 10:12:03 21 26 19.3
002EEBC9 2019-04-21 09:40:08 21 26 19
002EEBC9 2019-04-21 09:08:12 21 26 19
002EEBC9 2019-04-21 08:36:17 21 26 18.7
002EEBC9 2019-04-21 08:04:21 21 26 19
002EEBC9 2019-04-21 07:32:26 21 26 19
002EEBC9 2019-04-21 07:00:30 21 26 19.2
002EEBC9 2019-04-21 06:28:34 21 26 19.3
002EEBC9 2019-04-21 05:56:36 21 26 19.4
002EEBC9 2019-04-21 05:24:40 21 26 19.3
002EEBC9 2019-04-21 04:52:43 21.2 26 19.4
002EEBC9 2019-04-21 04:20:46 21.2 26 19.3
002EEBC9 2019-04-21 03:48:51 21.2 26 19.6
002EEBC9 2019-04-21 03:16:55 21.2 26 19.7
002EEBC9 2019-04-21 02:45:01 21.2 26 19.7
002EEBC9 2019-04-21 02:13:09 21.2 26 19.7
002EEBC9 2019-04-21 01:41:12 21.2 26 19.7
002EEBC9 2019-04-21 01:09:18 21.2 26 19.7
002EEBC9 2019-04-21 00:37:23 21.1 26 19.8
002EEBC9 2019-04-21 00:05:29 21.2 26 19.8
002EEBC9 2019-04-20 23:33:36 21.2 26 21.3
002EEBC9 2019-04-20 23:01:42 21.2 26 21.3
002EEBC9 2019-04-20 22:29:48 21.2 26 21.3
002EEBC9 2019-04-20 21:57:54 21.2 26 21.3
002EEBC9 2019-04-20 21:26:01 21.2 25 21.2
002EEBC9 2019-04-20 20:54:08 21.2 25 21.2
002EEBC9 2019-04-20 20:22:14 21.2 25 21.2
002EEBC9 2019-04-20 19:50:19 21.2 25 21.1
002EEBC9 2019-04-20 19:18:24 21.2 25 21.2
002EEBC9 2019-04-20 18:46:29 21.2 25 21
002EEBC9 2019-04-20 18:14:34 21.2 25 20.9
002EEBC9 2019-04-20 17:42:39 21.2 25 20.8
002EEBC9 2019-04-20 17:10:43 21.2 25 20.7
002EEBC9 2019-04-20 16:38:50 21.2 25 20.7
002EEBC9 2019-04-20 16:06:53 21.2 25 20.7
002EEBC9 2019-04-20 15:34:57 21.2 25 20.7
002EEBC9 2019-04-20 15:03:01 21.2 25 20.6
002EEBC9 2019-04-20 14:31:06 21.2 25 20.3
002EEBC9 2019-04-20 13:59:10 21.1 25 20.4
002EEBC9 2019-04-20 13:27:15 21.1 25 20.4
002EEBC9 2019-04-20 12:55:21 21.1 25 20.2
002EEBC9 2019-04-20 12:23:27 21.1 25 20.2
002EEBC9 2019-04-20 11:51:31 21.1 25 18.2
002EEBC9 2019-04-20 11:19:37 21.1 25 18.1
002EEBC9 2019-04-20 10:47:41 21 24 18.1
002EEBC9 2019-04-20 10:15:46 21 24 14.8
002EEBC9 2019-04-20 09:43:53 21 24 14.9
002EEBC9 2019-04-20 09:11:56 21 24 15.3
002EEBC9 2019-04-20 08:40:03 21 24 15.3
002EEBC9 2019-04-20 08:08:08 21 24 15.3
002EEBC9 2019-04-20 07:36:13 21 24 15.3
002EEBC9 2019-04-20 07:04:21 21 24 15.7
002EEBC9 2019-04-20 06:32:24 21 24 16.1
002EEBC9 2019-04-20 06:00:30 21 24 16.1
002EEBC9 2019-04-20 05:28:35 21 24 16.1
002EEBC9 2019-04-20 04:56:40 21 24 16.6
002EEBC9 2019-04-20 04:24:49 21 24 16.7
002EEBC9 2019-04-20 03:52:52 21 24 16.7
002EEBC9 2019-04-20 03:20:55 21 24 16.8
002EEBC9 2019-04-20 02:49:03 21 24 16.8
002EEBC9 2019-04-20 02:17:05 21 24 16.9
002EEBC9 2019-04-20 01:45:12 21 24 17.2
002EEBC9 2019-04-20 01:13:17 21 24 17.2
002EEBC9 2019-04-20 00:41:25 21 24 17.1
002EEBC9 2019-04-20 00:09:28 21 24 17
002EEBC9 2019-04-19 23:37:34 21 24 17.3
002EEBC9 2019-04-19 23:05:37 20.9 24 17.6
002EEBC9 2019-04-19 22:33:40 20.9 24 17.6
002EEBC9 2019-04-19 22:01:43 21 24 17.7
002EEBC9 2019-04-19 21:29:49 21 24 17.9
002EEBC9 2019-04-19 20:57:56 21 24 17.5
002EEBC9 2019-04-19 20:25:59 21 24 19.8
002EEBC9 2019-04-19 19:54:05 21 24 19.8
002EEBC9 2019-04-19 19:22:10 20.9 24 19.9
002EEBC9 2019-04-19 18:50:17 20.9 24 19.9
002EEBC9 2019-04-19 18:18:19 20.9 25 20
002EEBC9 2019-04-19 17:46:25 20.9 25 19.9
002EEBC9 2019-04-19 17:14:31 20.9 25 20
002EEBC9 2019-04-19 16:42:34 20.9 25 20
002EEBC9 2019-04-19 16:10:40 20.9 25 20.1
002EEBC9 2019-04-19 15:38:43 20.9 25 20
002EEBC9 2019-04-19 15:06:47 20.9 25 20
002EEBC9 2019-04-19 14:34:53 21 25 19.9
002EEBC9 2019-04-19 14:02:53 21 25 20
002EEBC9 2019-04-19 13:30:55 21 25 20
002EEBC9 2019-04-19 12:58:57 21 25 20
002EEBC9 2019-04-19 11:55:03 21 26 20.2
002EEBC9 2019-04-19 11:23:08 21 26 20.5
002EEBC9 2019-04-19 10:51:13 21 26 20.6
002EEBC9 2019-04-19 10:19:17 21 26 20.7
002EEBC9 2019-04-19 09:47:22 21.1 26 20.6
002EEBC9 2019-04-19 09:15:27 21.1 26 20.7
002EEBC9 2019-04-19 08:43:31 21.2 26 20.7
002EEBC9 2019-04-19 08:11:36 21.2 26 20.7
002EEBC9 2019-04-19 07:39:41 21.2 26 20.7
002EEBC9 2019-04-19 07:07:47 21.2 26 19
002EEBC9 2019-04-19 06:35:53 21.2 26 18.8
002EEBC9 2019-04-19 06:03:59 21.2 26 18.7
002EEBC9 2019-04-19 05:32:04 21.2 26 18.7
002EEBC9 2019-04-19 05:00:10 21.2 26 18.8
002EEBC9 2019-04-19 04:28:15 21.2 27 18.6
002EEBC9 2019-04-19 03:56:21 21.2 27 18.3
002EEBC9 2019-04-19 03:24:27 21.2 27 18.2
002EEBC9 2019-04-19 02:52:32 21.2 27 20
002EEBC9 2019-04-19 02:20:36 21.2 27 21.4
002EEBC9 2019-04-19 01:48:41 21.2 27 21.9
002EEBC9 2019-04-19 01:16:48 21.2 27 22.2
002EEBC9 2019-04-19 00:44:55 21.2 27 23.1
002EEBC9 2019-04-19 00:13:01 21.3 27 23.5
002EEBC9 2019-04-18 23:41:09 21.2 27 23.7
002EEBC9 2019-04-18 23:09:15 21.2 27 24
002EEBC9 2019-04-18 22:37:21 21.2 27 24
002EEBC9 2019-04-18 22:05:28 21.2 27 24.2
002EEBC9 2019-04-18 21:33:35 21.2 27 24.3
002EEBC9 2019-04-18 21:01:41 21.2 27 24.6
002EEBC9 2019-04-18 20:29:47 21.2 27 24.7
002EEBC9 2019-04-18 19:57:53 21.2 27 24.8
002EEBC9 2019-04-18 19:25:59 21.4 27 24.9
002EEBC9 2019-04-18 18:54:07 21.4 27 25.1
002EEBC9 2019-04-18 18:22:17 21.4 27 25.2
002EEBC9 2019-04-18 17:50:21 21.6 27 25.3
002EEBC9 2019-04-18 17:18:33 21.6 27 25.5
002EEBC9 2019-04-18 16:46:37 21.6 27 25.6
002EEBC9 2019-04-18 15:42:52 21.6 27 25.7
002EEBC9 2019-04-18 15:11:00 21.6 27 25.8
002EEBC9 2019-04-18 14:39:04 21.6 27 25.9
002EEBC9 2019-04-18 14:07:11 21.7 27 26.1
002EEBC9 2019-04-18 13:35:17 21.8 27 26.2
002EEBC9 2019-04-18 13:03:23 22 26 25.9
002EEBC9 2019-04-18 12:31:30 22.2 26 25.6
002EEBC9 2019-04-18 11:59:37 22.5 21 25.6
002EEBC9 2019-04-18 11:27:45 22.3 22 25.8
002EEBC9 2019-04-18 10:55:52 22.3 22 25.5
002EEBC9 2019-04-18 10:24:00 22.2 23 25.4
002EEBC9 2019-04-18 09:52:07 22.2 23 25.3
002EEBC9 2019-04-18 09:20:14 22.2 22 25.2
002EEBC9 2019-04-18 08:48:19 22.2 22 25.3
002EEBC9 2019-04-18 08:16:24 22.2 22 25.4
002EEBC9 2019-04-18 07:44:31 22.2 22 25.4
002EEBC9 2019-04-18 07:12:36 22.2 22 25.3
002EEBC9 2019-04-18 06:40:43 22.2 22 25.4
002EEBC9 2019-04-18 06:08:49 22.2 22 25.4
002EEBC9 2019-04-18 05:36:55 22.2 23 25.4
002EEBC9 2019-04-18 05:05:02 22.2 23 25.8
002EEBC9 2019-04-18 04:33:09 22.2 23 25.9
002EEBC9 2019-04-18 04:01:17 22.2 23 25.9
002EEBC9 2019-04-18 03:29:24 22.2 23 25.8
002EEBC9 2019-04-18 02:57:32 22.2 23 25.9
002EEBC9 2019-04-18 02:25:38 22.3 23 26
002EEBC9 2019-04-18 01:53:45 22.4 23 26.2
002EEBC9 2019-04-18 01:21:52 22.5 23 26.2
002EEBC9 2019-04-18 00:49:59 22.5 23 26.1
002EEBC9 2019-04-18 00:18:06 22.5 23 26
002EEBC9 2019-04-17 23:46:13 22.5 23 26
002EEBC9 2019-04-17 23:14:19 22.5 23 25.9
002EEBC9 2019-04-17 22:42:25 22.5 23 26.2
002EEBC9 2019-04-17 22:10:34 22.6 23 26
002EEBC9 2019-04-17 21:38:41 22.7 23 26
002EEBC9 2019-04-17 21:06:49 22.7 23 26
002EEBC9 2019-04-17 20:34:56 22.8 23 26
002EEBC9 2019-04-17 20:03:03 22.9 23 26
002EEBC9 2019-04-17 19:31:09 22.9 23 25.9
002EEBC9 2019-04-17 18:59:16 22.9 23 26
002EEBC9 2019-04-17 18:27:22 22.9 22 26.3
002EEBC9 2019-04-17 17:55:29 22.9 22 26.4
002EEBC9 2019-04-17 17:23:36 23 22 26.6
002EEBC9 2019-04-17 16:51:43 23.1 22 26.6
002EEBC9 2019-04-17 16:19:52 23.1 23 26.6
002EEBC9 2019-04-17 15:48:00 23.1 23 26.3
002EEBC9 2019-04-17 15:16:08 22.9 23 26.3
002EEBC9 2019-04-17 14:44:15 22.9 24 26.4
002EEBC9 2019-04-17 14:12:23 22.9 24 26.4
002EEBC9 2019-04-17 13:40:30 22.7 24 26.4
002EEBC9 2019-04-17 13:08:38 22.7 23 26.4
002EEBC9 2019-04-17 12:36:44 22.5 23 26.3
002EEBC9 2019-04-17 12:04:51 22.5 23 26.3
002EEBC9 2019-04-17 11:32:57 22.3 23 26.4
002EEBC9 2019-04-17 11:01:04 22.2 23 26.4
002EEBC9 2019-04-17 10:29:09 22.2 22 26.5
002EEBC9 2019-04-17 09:57:16 22.2 22 26.5
002EEBC9 2019-04-17 09:25:22 22.2 22 26.2
002EEBC9 2019-04-17 08:53:27 22.2 22 26.3
002EEBC9 2019-04-17 08:21:33 22.1 21 26.3
002EEBC9 2019-04-17 07:49:38 22.2 21 26.3
002EEBC9 2019-04-17 07:17:44 22.1 20 26.3
002EEBC9 2019-04-17 06:45:50 22 20 26.3
002EEBC9 2019-04-17 06:13:56 22 20 26.3
002EEBC9 2019-04-17 05:42:03 22.1 20 26.2
002EEBC9 2019-04-17 05:10:10 22 20 25.9
002EEBC9 2019-04-17 04:38:16 22.1 20 26.1
002EEBC9 2019-04-17 04:06:23 22.2 20 25.8
002EEBC9 2019-04-17 03:34:29 22.2 20 25.8
002EEBC9 2019-04-17 03:02:36 22.2 20 25.6
002EEBC9 2019-04-17 02:30:42 22.2 21 25.6
002EEBC9 2019-04-17 01:58:48 22.2 21 25.5
002EEBC9 2019-04-17 01:26:55 22.2 21 25.3
002EEBC9 2019-04-17 00:55:01 22.2 21 25.6
002EEBC9 2019-04-17 00:23:08 22.2 21 25.5
002EEBC9 2019-04-16 23:51:14 22.2 21 25.5
002EEBC9 2019-04-16 23:19:21 22.2 21 25.5
002EEBC9 2019-04-16 22:47:29 22.3 21 25.5
002EEBC9 2019-04-16 22:15:35 22.4 21 25.3
002EEBC9 2019-04-16 21:43:41 22.5 20 25.3
002EEBC9 2019-04-16 21:11:49 22.5 20 25.3
002EEBC9 2019-04-16 20:39:55 22.5 20 25.2
002EEBC9 2019-04-16 20:08:01 22.5 20 25.2
002EEBC9 2019-04-16 19:36:08 22.5 20 25.2
002EEBC9 2019-04-16 19:04:15 22.5 20 25.2
002EEBC9 2019-04-16 18:32:21 22.6 19 25.3
002EEBC9 2019-04-16 18:00:27 22.7 19 25.2
002EEBC9 2019-04-16 17:28:34 22.7 19 25.1
002EEBC9 2019-04-16 16:56:40 22.9 19 25.1
002EEBC9 2019-04-16 16:24:47 22.9 19 25.2
002EEBC9 2019-04-16 15:52:52 22.9 19 25.3
002EEBC9 2019-04-16 15:20:57 22.9 20 25
002EEBC9 2019-04-16 14:49:02 22.7 20 25
002EEBC9 2019-04-16 14:17:07 22.7 19 25.2
002EEBC9 2019-04-16 13:45:13 22.7 19 25.3
002EEBC9 2019-04-16 13:13:19 22.5 19 25.3
002EEBC9 2019-04-16 12:41:26 22.5 19 25.6
002EEBC9 2019-04-16 12:09:32 22.4 19 25.7
002EEBC9 2019-04-16 11:37:38 22.2 19 25.4
002EEBC9 2019-04-16 11:05:44 22.2 19 25.4
002EEBC9 2019-04-16 10:33:50 22.1 19 25.3
002EEBC9 2019-04-16 10:01:54 22 19 25.4
002EEBC9 2019-04-16 09:29:59 22 19 25.5
002EEBC9 2019-04-16 08:58:05 22.1 19 25.6
002EEBC9 2019-04-16 08:26:10 22 19 25.6
002EEBC9 2019-04-16 07:54:16 22 18 25.7
002EEBC9 2019-04-16 07:22:23 22 18 26.1
002EEBC9 2019-04-16 06:50:29 22 18 26.2
002EEBC9 2019-04-16 06:18:34 22 18 26.3
002EEBC9 2019-04-16 05:46:40 22 18 26.3
002EEBC9 2019-04-16 05:14:47 22 18 26.2
002EEBC9 2019-04-16 04:42:54 22 18 26.2
002EEBC9 2019-04-16 04:11:01 22.1 18 26.3
002EEBC9 2019-04-16 03:39:07 22.1 18 26.4
002EEBC9 2019-04-16 03:07:12 22.1 18 26.3
002EEBC9 2019-04-16 02:35:19 22.1 18 26.3
002EEBC9 2019-04-16 02:03:25 22.1 18 26.3
002EEBC9 2019-04-16 01:31:33 22.1 18 26.4
002EEBC9 2019-04-16 00:59:40 22.1 18 26.3
002EEBC9 2019-04-16 00:27:46 22.2 18 26.4
002EEBC9 2019-04-15 23:55:53 22.2 18 26.3
002EEBC9 2019-04-15 23:24:00 22.2 18 26.2
002EEBC9 2019-04-15 22:52:07 22.2 18 26.1
002EEBC9 2019-04-15 22:20:14 22.2 17 26.1
002EEBC9 2019-04-15 21:48:19 22.3 17 26.2
002EEBC9 2019-04-15 21:16:23 22.5 17 26.2
002EEBC9 2019-04-15 20:44:29 22.5 17 26.2
002EEBC9 2019-04-15 20:12:34 22.5 17 26.1
002EEBC9 2019-04-15 19:40:40 22.5 17 26.1
002EEBC9 2019-04-15 19:08:45 22.5 16 26.2
002EEBC9 2019-04-15 18:36:51 22.5 16 26.1
002EEBC9 2019-04-15 18:04:56 22.7 16 26.1
002EEBC9 2019-04-15 17:33:02 22.7 16 26
002EEBC9 2019-04-15 17:01:08 22.7 16 26
002EEBC9 2019-04-15 16:29:15 22.9 16 26
002EEBC9 2019-04-15 15:57:23 22.9 16 26
002EEBC9 2019-04-15 15:25:29 22.8 16 26
002EEBC9 2019-04-15 14:53:36 22.7 16 26
002EEBC9 2019-04-15 14:21:43 22.7 17 26
002EEBC9 2019-04-15 13:49:50 22.7 17 26
002EEBC9 2019-04-15 13:17:57 22.5 17 26.2
002EEBC9 2019-04-15 12:46:04 22.5 17 26.4
002EEBC9 2019-04-15 12:14:11 22.5 17 26.4
002EEBC9 2019-04-15 11:42:16 22.2 16 26.5
002EEBC9 2019-04-15 11:10:22 22.2 16 26.4
002EEBC9 2019-04-15 10:38:30 22.2 17 26.5
002EEBC9 2019-04-15 10:06:35 22.1 17 26.5
002EEBC9 2019-04-15 09:34:42 22 18 26.6
002EEBC9 2019-04-15 09:02:48 22 18 26.8
002EEBC9 2019-04-15 08:30:53 21.9 18 26.8
002EEBC9 2019-04-15 07:58:59 21.8 18 26.8
002EEBC9 2019-04-15 07:27:04 21.8 18 26.9
002EEBC9 2019-04-15 06:55:08 21.8 18 27.1
002EEBC9 2019-04-15 06:23:13 21.8 18 27
002EEBC9 2019-04-15 05:51:17 21.8 18 27
002EEBC9 2019-04-15 05:19:21 21.8 18 27.1
002EEBC9 2019-04-15 04:47:24 21.8 18 26.8
002EEBC9 2019-04-15 04:15:28 21.8 18 26.8
002EEBC9 2019-04-15 03:43:33 21.8 18 26.8
002EEBC9 2019-04-15 03:11:38 21.8 18 26.8
002EEBC9 2019-04-15 02:39:44 21.8 18 26.8
002EEBC9 2019-04-15 02:07:49 21.8 18 26.8
002EEBC9 2019-04-15 01:35:55 21.8 18 26.8
002EEBC9 2019-04-15 01:04:00 21.8 18 26.7
002EEBC9 2019-04-15 00:32:06 21.8 18 26.7
002EEBC9 2019-04-15 00:00:10 21.8 18 26.5
002EEBC9 2019-04-14 23:28:16 21.8 18 26.2
002EEBC9 2019-04-14 22:56:21 21.8 18 26.1
002EEBC9 2019-04-14 22:24:26 21.8 18 25.9
002EEBC9 2019-04-14 21:52:32 22 19 25.9
002EEBC9 2019-04-14 21:20:36 22 19 25.9
002EEBC9 2019-04-14 20:48:40 22 19 25.8
002EEBC9 2019-04-14 20:16:44 22 19 25.8
002EEBC9 2019-04-14 19:44:49 22 19 25.5
002EEBC9 2019-04-14 19:12:53 22 19 25.5
002EEBC9 2019-04-14 18:40:57 22 19 25.8
002EEBC9 2019-04-14 18:09:02 22 19 25.7
002EEBC9 2019-04-14 17:37:06 22 19 25.6
002EEBC9 2019-04-14 17:05:12 21.8 19 25.5
002EEBC9 2019-04-14 16:33:17 21.8 19 25.6
002EEBC9 2019-04-14 16:01:23 21.8 19 25.4
002EEBC9 2019-04-14 15:29:27 21.9 19 25.5
002EEBC9 2019-04-14 14:57:32 21.9 19 25.5
002EEBC9 2019-04-14 14:25:36 21.9 19 25.4
002EEBC9 2019-04-14 13:53:42 21.9 19 25.5
002EEBC9 2019-04-14 13:21:48 21.9 19 25.5
002EEBC9 2019-04-14 12:49:53 22 19 25.7
002EEBC9 2019-04-14 12:17:58 22 19 25.6
002EEBC9 2019-04-14 11:46:04 21.9 19 25.6
002EEBC9 2019-04-14 11:14:09 21.9 19 25.6
002EEBC9 2019-04-14 10:42:14 21.8 19 25.9
002EEBC9 2019-04-14 10:10:19 21.8 19 25.9
002EEBC9 2019-04-14 09:38:24 21.8 19 26.1
002EEBC9 2019-04-14 09:06:30 21.8 19 26.2
002EEBC9 2019-04-14 08:34:37 21.8 19 26.2
002EEBC9 2019-04-14 08:02:43 21.8 19 26.3
002EEBC9 2019-04-14 07:30:49 21.8 19 26.3
002EEBC9 2019-04-14 06:58:55 21.8 19 26.3
002EEBC9 2019-04-14 06:27:01 21.8 19 26.3
002EEBC9 2019-04-14 05:55:05 21.8 19 26.4
002EEBC9 2019-04-14 05:23:11 21.8 19 26.1
002EEBC9 2019-04-14 04:51:17 21.8 19 26.1
002EEBC9 2019-04-14 04:19:21 21.8 19 26
002EEBC9 2019-04-14 03:47:26 21.8 19 26.1
002EEBC9 2019-04-14 03:15:31 21.9 19 26
002EEBC9 2019-04-14 02:43:36 21.9 19 26
002EEBC9 2019-04-14 02:11:40 22 19 26.2
002EEBC9 2019-04-14 01:39:44 22 19 26.2
002EEBC9 2019-04-14 01:07:47 22 19 26.2
002EEBC9 2019-04-14 00:35:51 22 19 26.2
002EEBC9 2019-04-14 00:03:55 22 19 26.5
002EEBC9 2019-04-13 23:31:59 22 19 26.4
002EEBC9 2019-04-13 23:00:03 22 19 26.7
002EEBC9 2019-04-13 22:28:08 22 19 26.7
002EEBC9 2019-04-13 21:56:13 22 19 26.6
002EEBC9 2019-04-13 21:24:18 22 18 26.6
002EEBC9 2019-04-13 20:52:24 22 18 26.7
002EEBC9 2019-04-13 20:20:28 22.1 19 26.5
002EEBC9 2019-04-13 19:48:32 22.2 19 26.6
002EEBC9 2019-04-13 19:16:37 22.2 19 26.5
002EEBC9 2019-04-13 18:44:39 22.2 19 26.5
002EEBC9 2019-04-13 18:12:43 22.2 19 26.5
002EEBC9 2019-04-13 17:40:47 22.2 19 26.5
002EEBC9 2019-04-13 17:08:52 22.2 19 26.5
002EEBC9 2019-04-13 16:36:56 22.2 19 26.4
002EEBC9 2019-04-13 16:05:00 22.2 19 26.4
002EEBC9 2019-04-13 15:33:03 22.2 19 26.3
002EEBC9 2019-04-13 15:01:06 22.3 19 26.4
002EEBC9 2019-04-13 14:29:08 22.2 19 26.3
002EEBC9 2019-04-13 13:57:12 22.3 19 26.4
002EEBC9 2019-04-13 13:25:15 22.4 19 26.4
002EEBC9 2019-04-13 12:53:19 22.4 19 26.2
002EEBC9 2019-04-13 12:21:23 22.4 19 26.2
002EEBC9 2019-04-13 11:49:26 22.4 19 26.4
002EEBC9 2019-04-13 11:17:28 22.3 19 26.4
002EEBC9 2019-04-13 10:45:32 22.3 19 26.1
002EEBC9 2019-04-13 10:13:36 22.3 19 26.1
002EEBC9 2019-04-13 09:41:41 22.2 19 25.8
002EEBC9 2019-04-13 09:09:44 22.2 19 25.9
002EEBC9 2019-04-13 08:37:48 22.2 19 25.9
002EEBC9 2019-04-13 08:05:53 22.2 19 25.6
002EEBC9 2019-04-13 07:33:57 22.2 19 25.5
002EEBC9 2019-04-13 07:02:00 22.2 19 25.6
002EEBC9 2019-04-13 06:30:03 22.2 19 25.6
002EEBC9 2019-04-13 05:58:06 22.2 19 25.7
002EEBC9 2019-04-13 05:26:09 22.2 19 25.9
002EEBC9 2019-04-13 04:54:11 22.2 19 25.8
002EEBC9 2019-04-13 04:22:15 22.2 19 26
002EEBC9 2019-04-13 03:50:18 22.4 18 26.3
002EEBC9 2019-04-13 03:18:22 22.4 19 26.6
002EEBC9 2019-04-13 02:46:25 22.4 19 26.5
002EEBC9 2019-04-13 02:14:28 22.5 19 26.4
002EEBC9 2019-04-13 01:42:31 22.5 19 26.4
002EEBC9 2019-04-13 01:10:35 22.5 19 26.6
002EEBC9 2019-04-13 00:38:40 22.5 19 26.5
002EEBC9 2019-04-13 00:06:44 22.5 19 26.6
002EEBC9 2019-04-12 23:34:48 22.6 20 26.7
002EEBC9 2019-04-12 23:02:50 22.6 20 26.8
002EEBC9 2019-04-12 22:30:53 22.7 20 26.5
002EEBC9 2019-04-12 21:58:56 22.7 20 26.6
002EEBC9 2019-04-12 21:26:59 22.7 20 26.6
002EEBC9 2019-04-12 20:55:03 22.7 20 26.8
002EEBC9 2019-04-12 20:23:07 22.7 20 26.8
002EEBC9 2019-04-12 19:51:11 22.8 19 26.8
002EEBC9 2019-04-12 19:19:14 22.9 19 27
002EEBC9 2019-04-12 18:47:17 22.9 19 27.1
002EEBC9 2019-04-12 18:15:20 23 17 27.3
002EEBC9 2019-04-12 17:43:24 23.1 17 27.3
002EEBC9 2019-04-12 17:11:28 23.1 18 27.5
002EEBC9 2019-04-12 16:39:32 23.1 18 27.5
002EEBC9 2019-04-12 16:07:35 23.1 19 27.5
002EEBC9 2019-04-12 15:35:38 22.9 19 28.1
002EEBC9 2019-04-12 15:03:42 22.8 19 27.5
002EEBC9 2019-04-12 14:31:46 22.5 20 26.1
002EEBC9 2019-04-12 13:59:48 22.1 21 20.6
002EEBC9 2019-04-12 13:27:49 21.4 21 6
002EEBC9 2019-04-12 12:55:51 20.5 37 0